owner,sensor,date,latitude,longitude,vertical_datum,sea_water_practical_salinity,qcFlag 
DISL,ioos:station:DISL:MHPA:1,2012-07-01T00:00:00Z,30.6671,-87.9365,3.266,2.45,1111122 
DISL,ioos:station:DISL:MHPA:1,2012-07-01T00:30:00Z,30.6671,-87.9365,3.174,2.44,1111122 
DISL,ioos:station:DISL:MHPA:1,2012-07-01T01:00:00Z,30.6671,-87.9365,3.1,2.44,1111122 
DISL,ioos:station:DISL:MHPA:1,2012-07-01T01:30:00Z,30.6671,-87.9365,3.046,2.44,1111122 
DISL,ioos:station:DISL:MHPA:1,2012-07-01T02:00:00Z,30.6671,-87.9365,3.008,2.45,1111122 
DISL,ioos:station:DISL:MHPA:1,2012-07-01T02:30:00Z,30.6671,-87.9365,2.97,2.45,1111122 
DISL,ioos:station:DISL:MHPA:1,2012-07-01T03:00:00Z,30.6671,-87.9365,2.933,2.45,1111122 
DISL,ioos:station:DISL:MHPA:1,2012-07-01T03:30:00Z,30.6671,-87.9365,2.952,2.45,1111122 
DISL,ioos:station:DISL:MHPA:1,2012-07-01T04:00:00Z,30.6671,-87.9365,3.01,2.46,1111122 
DISL,ioos:station:DISL:MHPA:1,2012-07-01T04:30:00Z,30.6671,-87.9365,3.084,2.46,1111122 
DISL,ioos:station:DISL:MHPA:1,2012-07-01T05:00:00Z,30.6671,-87.9365,3.205,2.46,1111122 
DISL,ioos:station:DISL:MHPA:1,2012-07-01T05:30:00Z,30.6671,-87.9365,3.365,2.46,1111122 
DISL,ioos:station:DISL:MHPA:1,2012-07-01T06:00:00Z,30.6671,-87.9365,3.523,2.46,1111122 
DISL,ioos:station:DISL:MHPA:1,2012-07-01T06:30:00Z,30.6671,-87.9365,3.688,2.46,1111122 
DISL,ioos:station:DISL:MHPA:1,2012-07-01T07:00:00Z,30.6671,-87.9365,3.847,2.46,1111122 
DISL,ioos:station:DISL:MHPA:1,2012-07-01T07:30:00Z,30.6671,-87.9365,3.962,2.46,1111122 
DISL,ioos:station:DISL:MHPA:1,2012-07-01T08:00:00Z,30.6671,-87.9365,4.065,2.46,1111122 
DISL,ioos:station:DISL:MHPA:1,2012-07-01T08:30:00Z,30.6671,-87.9365,4.157,2.46,1111122 
DISL,ioos:station:DISL:MHPA:1,2012-07-01T09:00:00Z,30.6671,-87.9365,4.225,2.48,1111122 
DISL,ioos:station:DISL:MHPA:1,2012-07-01T09:30:00Z,30.6671,-87.9365,4.324,2.47,1111122 
DISL,ioos:station:DISL:MHPA:1,2012-07-01T10:00:00Z,30.6671,-87.9365,4.425,2.46,1111122 
DISL,ioos:station:DISL:MHPA:1,2012-07-01T10:30:00Z,30.6671,-87.9365,4.497,2.46,1111122 
DISL,ioos:station:DISL:MHPA:1,2012-07-01T11:00:00Z,30.6671,-87.9365,4.589,2.46,1111122 
DISL,ioos:station:DISL:MHPA:1,2012-07-01T11:30:00Z,30.6671,-87.9365,4.705,2.47,1111122 
DISL,ioos:station:DISL:MHPA:1,2012-07-01T12:00:00Z,30.6671,-87.9365,4.823,2.5,1111122 
DISL,ioos:station:DISL:MHPA:1,2012-07-01T12:30:00Z,30.6671,-87.9365,4.897,2.48,1111122 
DISL,ioos:station:DISL:MHPA:1,2012-07-01T13:00:00Z,30.6671,-87.9365,4.971,2.54,1111122 
DISL,ioos:station:DISL:MHPA:1,2012-07-01T13:30:00Z,30.6671,-87.9365,5.029,2.54,1111122 
DISL,ioos:station:DISL:MHPA:1,2012-07-01T14:00:00Z,30.6671,-87.9365,5.075,2.52,1111122 
DISL,ioos:station:DISL:MHPA:1,2012-07-01T14:30:00Z,30.6671,-87.9365,5.093,2.52,1111122 
DISL,ioos:station:DISL:MHPA:1,2012-07-01T15:00:00Z,30.6671,-87.9365,5.07,2.52,1111122 
DISL,ioos:station:DISL:MHPA:1,2012-07-01T15:30:00Z,30.6671,-87.9365,5.024,2.51,1111122 
DISL,ioos:station:DISL:MHPA:1,2012-07-01T16:00:00Z,30.6671,-87.9365,4.96,2.51,1111122 
DISL,ioos:station:DISL:MHPA:1,2012-07-01T16:30:00Z,30.6671,-87.9365,4.876,2.47,1111122 
DISL,ioos:station:DISL:MHPA:1,2012-07-01T17:00:00Z,30.6671,-87.9365,4.784,2.5,1111122 
DISL,ioos:station:DISL:MHPA:1,2012-07-01T17:30:00Z,30.6671,-87.9365,4.674,2.5,1111122 
DISL,ioos:station:DISL:MHPA:1,2012-07-01T18:00:00Z,30.6671,-87.9365,4.56,2.51,1111122 
DISL,ioos:station:DISL:MHPA:1,2012-07-01T18:30:00Z,30.6671,-87.9365,4.461,2.5,1111122 
DISL,ioos:station:DISL:MHPA:1,2012-07-01T19:00:00Z,30.6671,-87.9365,4.325,2.5,1111122 
DISL,ioos:station:DISL:MHPA:1,2012-07-01T19:30:00Z,30.6671,-87.9365,4.195,2.5,1111122 
DISL,ioos:station:DISL:MHPA:1,2012-07-01T20:00:00Z,30.6671,-87.9365,4.078,2.51,1111122 
DISL,ioos:station:DISL:MHPA:1,2012-07-01T20:30:00Z,30.6671,-87.9365,3.955,2.49,1111122 
DISL,ioos:station:DISL:MHPA:1,2012-07-01T21:00:00Z,30.6671,-87.9365,3.841,2.48,1111122 
DISL,ioos:station:DISL:MHPA:1,2012-07-01T21:30:00Z,30.6671,-87.9365,3.751,2.5,1111122 
DISL,ioos:station:DISL:MHPA:1,2012-07-01T22:00:00Z,30.6671,-87.9365,3.666,2.48,1111122 
DISL,ioos:station:DISL:MHPA:1,2012-07-01T22:30:00Z,30.6671,-87.9365,3.594,2.48,1111122 
DISL,ioos:station:DISL:MHPA:1,2012-07-01T23:00:00Z,30.6671,-87.9365,3.503,2.5,1111122 
DISL,ioos:station:DISL:MHPA:1,2012-07-01T23:30:00Z,30.6671,-87.9365,3.401,2.5,1111122 
DISL,ioos:station:DISL:MHPA:1,2012-07-02T00:00:00Z,30.6671,-87.9365,3.301,2.49,1111122 
DISL,ioos:station:DISL:MHPA:1,2012-07-02T00:30:00Z,30.6671,-87.9365,3.221,2.48,1111122 
DISL,ioos:station:DISL:MHPA:1,2012-07-02T01:00:00Z,30.6671,-87.9365,3.141,2.47,1111122 
DISL,ioos:station:DISL:MHPA:1,2012-07-02T01:30:00Z,30.6671,-87.9365,3.059,2.47,1111122 
DISL,ioos:station:DISL:MHPA:1,2012-07-02T02:00:00Z,30.6671,-87.9365,2.963,2.47,1111122 
DISL,ioos:station:DISL:MHPA:1,2012-07-02T02:30:00Z,30.6671,-87.9365,2.864,2.49,1111122 
DISL,ioos:station:DISL:MHPA:1,2012-07-02T03:00:00Z,30.6671,-87.9365,2.791,2.54,1111122 
DISL,ioos:station:DISL:MHPA:1,2012-07-02T03:30:00Z,30.6671,-87.9365,2.74,2.53,1111122 
DISL,ioos:station:DISL:MHPA:1,2012-07-02T04:00:00Z,30.6671,-87.9365,2.718,2.51,1111122 
DISL,ioos:station:DISL:MHPA:1,2012-07-02T04:30:00Z,30.6671,-87.9365,2.724,2.53,1111122 
DISL,ioos:station:DISL:MHPA:1,2012-07-02T05:00:00Z,30.6671,-87.9365,2.769,2.53,1111122 
DISL,ioos:station:DISL:MHPA:1,2012-07-02T05:30:00Z,30.6671,-87.9365,2.856,2.54,1111122 
DISL,ioos:station:DISL:MHPA:1,2012-07-02T06:00:00Z,30.6671,-87.9365,2.951,2.53,1111122 
DISL,ioos:station:DISL:MHPA:1,2012-07-02T06:30:00Z,30.6671,-87.9365,3.059,2.54,1111122 
DISL,ioos:station:DISL:MHPA:1,2012-07-02T07:00:00Z,30.6671,-87.9365,3.184,2.55,1111122 
DISL,ioos:station:DISL:MHPA:1,2012-07-02T07:30:00Z,30.6671,-87.9365,3.311,2.56,1111122 
DISL,ioos:station:DISL:MHPA:1,2012-07-02T08:00:00Z,30.6671,-87.9365,3.441,2.55,1111122 
DISL,ioos:station:DISL:MHPA:1,2012-07-02T08:30:00Z,30.6671,-87.9365,3.575,2.56,1111122 
DISL,ioos:station:DISL:MHPA:1,2012-07-02T09:00:00Z,30.6671,-87.9365,3.685,2.58,1111122 
DISL,ioos:station:DISL:MHPA:1,2012-07-02T09:30:00Z,30.6671,-87.9365,3.776,2.57,1111122 
DISL,ioos:station:DISL:MHPA:1,2012-07-02T10:00:00Z,30.6671,-87.9365,3.887,2.56,1111122 
DISL,ioos:station:DISL:MHPA:1,2012-07-02T10:30:00Z,30.6671,-87.9365,4.003,2.53,1111122 
DISL,ioos:station:DISL:MHPA:1,2012-07-02T11:00:00Z,30.6671,-87.9365,4.061,2.54,1111122 
DISL,ioos:station:DISL:MHPA:1,2012-07-02T11:30:00Z,30.6671,-87.9365,4.133,2.55,1111122 
DISL,ioos:station:DISL:MHPA:1,2012-07-02T12:00:00Z,30.6671,-87.9365,4.226,2.56,1111122 
DISL,ioos:station:DISL:MHPA:1,2012-07-02T12:30:00Z,30.6671,-87.9365,4.303,2.55,1111122 
DISL,ioos:station:DISL:MHPA:1,2012-07-02T13:00:00Z,30.6671,-87.9365,4.492,2.56,1111122 
DISL,ioos:station:DISL:MHPA:1,2012-07-02T13:30:00Z,30.6671,-87.9365,4.675,2.56,1111122 
DISL,ioos:station:DISL:MHPA:1,2012-07-02T14:00:00Z,30.6671,-87.9365,4.833,2.56,1111122 
DISL,ioos:station:DISL:MHPA:1,2012-07-02T14:30:00Z,30.6671,-87.9365,4.945,2.56,1111122 
DISL,ioos:station:DISL:MHPA:1,2012-07-02T15:00:00Z,30.6671,-87.9365,5.082,2.56,1111122 
DISL,ioos:station:DISL:MHPA:1,2012-07-02T15:30:00Z,30.6671,-87.9365,4.947,2.56,1111122 
DISL,ioos:station:DISL:MHPA:1,2012-07-02T16:00:00Z,30.6671,-87.9365,4.851,2.55,1111122 
DISL,ioos:station:DISL:MHPA:1,2012-07-02T16:30:00Z,30.6671,-87.9365,4.928,2.59,1111122 
DISL,ioos:station:DISL:MHPA:1,2012-07-02T17:00:00Z,30.6671,-87.9365,4.968,2.57,1111122 
DISL,ioos:station:DISL:MHPA:1,2012-07-02T17:30:00Z,30.6671,-87.9365,4.983,2.53,1111122 
DISL,ioos:station:DISL:MHPA:1,2012-07-02T18:00:00Z,30.6671,-87.9365,4.873,2.59,1111122 
DISL,ioos:station:DISL:MHPA:1,2012-07-02T18:30:00Z,30.6671,-87.9365,4.702,2.59,1111122 
DISL,ioos:station:DISL:MHPA:1,2012-07-02T19:00:00Z,30.6671,-87.9365,4.594,2.61,1111122 
DISL,ioos:station:DISL:MHPA:1,2012-07-02T19:30:00Z,30.6671,-87.9365,4.543,2.59,1111122 
DISL,ioos:station:DISL:MHPA:1,2012-07-02T20:00:00Z,30.6671,-87.9365,4.416,2.64,1111122 
DISL,ioos:station:DISL:MHPA:1,2012-07-02T20:30:00Z,30.6671,-87.9365,4.195,2.66,1111122 
DISL,ioos:station:DISL:MHPA:1,2012-07-02T21:00:00Z,30.6671,-87.9365,4.04,2.63,1111122 
DISL,ioos:station:DISL:MHPA:1,2012-07-02T21:30:00Z,30.6671,-87.9365,3.849,2.63,1111122 
DISL,ioos:station:DISL:MHPA:1,2012-07-02T22:00:00Z,30.6671,-87.9365,3.639,2.63,1111122 
DISL,ioos:station:DISL:MHPA:1,2012-07-02T22:30:00Z,30.6671,-87.9365,3.571,2.63,1111122 
DISL,ioos:station:DISL:MHPA:1,2012-07-02T23:00:00Z,30.6671,-87.9365,3.583,2.73,1111122 
DISL,ioos:station:DISL:MHPA:1,2012-07-02T23:30:00Z,30.6671,-87.9365,3.431,2.77,1111122 
DISL,ioos:station:DISL:MHPA:1,2012-07-03T00:00:00Z,30.6671,-87.9365,3.241,2.7,1111122 
DISL,ioos:station:DISL:MHPA:1,2012-07-03T00:30:00Z,30.6671,-87.9365,3.118,2.63,1111122 
DISL,ioos:station:DISL:MHPA:1,2012-07-03T01:00:00Z,30.6671,-87.9365,3.03,2.7,1111122 
DISL,ioos:station:DISL:MHPA:1,2012-07-03T01:30:00Z,30.6671,-87.9365,2.94,2.67,1111122 
DISL,ioos:station:DISL:MHPA:1,2012-07-03T02:00:00Z,30.6671,-87.9365,2.812,2.69,1111122 
DISL,ioos:station:DISL:MHPA:1,2012-07-03T02:30:00Z,30.6671,-87.9365,2.735,2.7,1111122 
DISL,ioos:station:DISL:MHPA:1,2012-07-03T03:00:00Z,30.6671,-87.9365,2.733,2.72,1111122 
DISL,ioos:station:DISL:MHPA:1,2012-07-03T03:30:00Z,30.6671,-87.9365,2.675,2.69,1111122 
DISL,ioos:station:DISL:MHPA:1,2012-07-03T04:00:00Z,30.6671,-87.9365,2.593,2.7,1111122 
DISL,ioos:station:DISL:MHPA:1,2012-07-03T04:30:00Z,30.6671,-87.9365,2.512,2.68,1111122 
DISL,ioos:station:DISL:MHPA:1,2012-07-03T05:00:00Z,30.6671,-87.9365,2.52,2.69,1111122 
DISL,ioos:station:DISL:MHPA:1,2012-07-03T05:30:00Z,30.6671,-87.9365,2.593,2.69,1111122 
DISL,ioos:station:DISL:MHPA:1,2012-07-03T06:00:00Z,30.6671,-87.9365,2.663,2.71,1111122 
DISL,ioos:station:DISL:MHPA:1,2012-07-03T06:30:00Z,30.6671,-87.9365,2.816,2.71,1111122 
DISL,ioos:station:DISL:MHPA:1,2012-07-03T07:00:00Z,30.6671,-87.9365,2.977,2.7,1111122 
DISL,ioos:station:DISL:MHPA:1,2012-07-03T07:30:00Z,30.6671,-87.9365,3.104,2.72,1111122 
DISL,ioos:station:DISL:MHPA:1,2012-07-03T08:00:00Z,30.6671,-87.9365,3.286,2.71,1111122 
DISL,ioos:station:DISL:MHPA:1,2012-07-03T08:30:00Z,30.6671,-87.9365,3.453,2.71,1111122 
DISL,ioos:station:DISL:MHPA:1,2012-07-03T09:00:00Z,30.6671,-87.9365,3.565,2.73,1111122 
DISL,ioos:station:DISL:MHPA:1,2012-07-03T09:30:00Z,30.6671,-87.9365,3.717,2.76,1111122 
DISL,ioos:station:DISL:MHPA:1,2012-07-03T10:00:00Z,30.6671,-87.9365,3.822,2.77,1111122 
DISL,ioos:station:DISL:MHPA:1,2012-07-03T10:30:00Z,30.6671,-87.9365,3.911,2.81,1111122 
DISL,ioos:station:DISL:MHPA:1,2012-07-03T11:00:00Z,30.6671,-87.9365,4.023,2.76,1111122 
DISL,ioos:station:DISL:MHPA:1,2012-07-03T11:30:00Z,30.6671,-87.9365,4.096,2.73,1111122 
DISL,ioos:station:DISL:MHPA:1,2012-07-03T12:00:00Z,30.6671,-87.9365,4.242,2.66,1111122 
DISL,ioos:station:DISL:MHPA:1,2012-07-03T12:30:00Z,30.6671,-87.9365,4.367,2.71,1111122 
DISL,ioos:station:DISL:MHPA:1,2012-07-03T13:00:00Z,30.6671,-87.9365,4.465,2.71,1111122 
DISL,ioos:station:DISL:MHPA:1,2012-07-03T13:30:00Z,30.6671,-87.9365,4.592,2.79,1111122 
DISL,ioos:station:DISL:MHPA:1,2012-07-03T14:00:00Z,30.6671,-87.9365,4.698,2.8,1111122 
DISL,ioos:station:DISL:MHPA:1,2012-07-03T14:30:00Z,30.6671,-87.9365,4.807,2.8,1111122 
DISL,ioos:station:DISL:MHPA:1,2012-07-03T15:00:00Z,30.6671,-87.9365,4.896,2.7,1111122 
DISL,ioos:station:DISL:MHPA:1,2012-07-03T15:30:00Z,30.6671,-87.9365,4.968,2.66,1111122 
DISL,ioos:station:DISL:MHPA:1,2012-07-03T16:00:00Z,30.6671,-87.9365,4.995,2.69,1111122 
DISL,ioos:station:DISL:MHPA:1,2012-07-03T16:30:00Z,30.6671,-87.9365,5.04,2.71,1111122 
DISL,ioos:station:DISL:MHPA:1,2012-07-03T17:00:00Z,30.6671,-87.9365,5.056,2.88,1111122 
DISL,ioos:station:DISL:MHPA:1,2012-07-03T17:30:00Z,30.6671,-87.9365,5.001,2.9,1111122 
DISL,ioos:station:DISL:MHPA:1,2012-07-03T18:00:00Z,30.6671,-87.9365,4.939,2.96,1111122 
DISL,ioos:station:DISL:MHPA:1,2012-07-03T18:30:00Z,30.6671,-87.9365,4.862,2.95,1111122 
DISL,ioos:station:DISL:MHPA:1,2012-07-03T19:00:00Z,30.6671,-87.9365,4.817,2.98,1111122 
DISL,ioos:station:DISL:MHPA:1,2012-07-03T19:30:00Z,30.6671,-87.9365,4.704,2.89,1111122 
DISL,ioos:station:DISL:MHPA:1,2012-07-03T20:00:00Z,30.6671,-87.9365,4.594,2.85,1111122 
DISL,ioos:station:DISL:MHPA:1,2012-07-03T20:30:00Z,30.6671,-87.9365,4.473,2.94,1111122 
DISL,ioos:station:DISL:MHPA:1,2012-07-03T21:00:00Z,30.6671,-87.9365,4.328,3.04,1111122 
DISL,ioos:station:DISL:MHPA:1,2012-07-03T21:30:00Z,30.6671,-87.9365,4.201,3.04,1111122 
DISL,ioos:station:DISL:MHPA:1,2012-07-03T22:00:00Z,30.6671,-87.9365,3.965,2.81,1111122 
DISL,ioos:station:DISL:MHPA:1,2012-07-03T22:30:00Z,30.6671,-87.9365,3.776,2.8,1111122 
DISL,ioos:station:DISL:MHPA:1,2012-07-03T23:00:00Z,30.6671,-87.9365,3.687,2.8,1111122 
DISL,ioos:station:DISL:MHPA:1,2012-07-03T23:30:00Z,30.6671,-87.9365,3.548,2.99,1111122 
DISL,ioos:station:DISL:MHPA:1,2012-07-04T00:00:00Z,30.6671,-87.9365,3.432,2.82,1111122 
DISL,ioos:station:DISL:MHPA:1,2012-07-04T00:30:00Z,30.6671,-87.9365,3.387,3.07,1111122 
DISL,ioos:station:DISL:MHPA:1,2012-07-04T01:00:00Z,30.6671,-87.9365,3.345,3.25,1111122 
DISL,ioos:station:DISL:MHPA:1,2012-07-04T01:30:00Z,30.6671,-87.9365,3.312,3.18,1111122 
DISL,ioos:station:DISL:MHPA:1,2012-07-04T02:00:00Z,30.6671,-87.9365,3.169,3.17,1111122 
DISL,ioos:station:DISL:MHPA:1,2012-07-04T02:30:00Z,30.6671,-87.9365,2.992,3.0,1111122 
DISL,ioos:station:DISL:MHPA:1,2012-07-04T03:00:00Z,30.6671,-87.9365,2.844,2.99,1111122 
DISL,ioos:station:DISL:MHPA:1,2012-07-04T03:30:00Z,30.6671,-87.9365,2.722,3.01,1111122 
DISL,ioos:station:DISL:MHPA:1,2012-07-04T04:00:00Z,30.6671,-87.9365,2.626,3.03,1111122 
DISL,ioos:station:DISL:MHPA:1,2012-07-04T04:30:00Z,30.6671,-87.9365,2.562,2.99,1111122 
DISL,ioos:station:DISL:MHPA:1,2012-07-04T05:00:00Z,30.6671,-87.9365,2.519,3.0,1111122 
DISL,ioos:station:DISL:MHPA:1,2012-07-04T05:30:00Z,30.6671,-87.9365,2.476,3.01,1111122 
DISL,ioos:station:DISL:MHPA:1,2012-07-04T06:00:00Z,30.6671,-87.9365,2.49,3.01,1111122 
DISL,ioos:station:DISL:MHPA:1,2012-07-04T06:30:00Z,30.6671,-87.9365,2.534,3.01,1111122 
DISL,ioos:station:DISL:MHPA:1,2012-07-04T07:00:00Z,30.6671,-87.9365,2.618,3.02,1111122 
DISL,ioos:station:DISL:MHPA:1,2012-07-04T07:30:00Z,30.6671,-87.9365,2.74,3.03,1111122 
DISL,ioos:station:DISL:MHPA:1,2012-07-04T08:00:00Z,30.6671,-87.9365,2.868,2.99,1111122 
DISL,ioos:station:DISL:MHPA:1,2012-07-04T08:30:00Z,30.6671,-87.9365,3.011,2.98,1111122 
DISL,ioos:station:DISL:MHPA:1,2012-07-04T09:00:00Z,30.6671,-87.9365,3.187,3.0,1111122 
DISL,ioos:station:DISL:MHPA:1,2012-07-04T09:30:00Z,30.6671,-87.9365,3.366,3.13,1111122 
DISL,ioos:station:DISL:MHPA:1,2012-07-04T10:00:00Z,30.6671,-87.9365,3.531,3.21,1111122 
DISL,ioos:station:DISL:MHPA:1,2012-07-04T10:30:00Z,30.6671,-87.9365,3.661,3.24,1111122 
DISL,ioos:station:DISL:MHPA:1,2012-07-04T11:00:00Z,30.6671,-87.9365,3.802,3.08,1111122 
DISL,ioos:station:DISL:MHPA:1,2012-07-04T11:30:00Z,30.6671,-87.9365,3.938,3.07,1111122 
DISL,ioos:station:DISL:MHPA:1,2012-07-04T12:00:00Z,30.6671,-87.9365,4.003,2.98,1111122 
DISL,ioos:station:DISL:MHPA:1,2012-07-04T12:30:00Z,30.6671,-87.9365,4.104,3.05,1111122 
DISL,ioos:station:DISL:MHPA:1,2012-07-04T13:00:00Z,30.6671,-87.9365,4.236,3.11,1111122 
DISL,ioos:station:DISL:MHPA:1,2012-07-04T13:30:00Z,30.6671,-87.9365,4.381,3.11,1111122 
DISL,ioos:station:DISL:MHPA:1,2012-07-04T14:00:00Z,30.6671,-87.9365,4.538,3.16,1111122 
DISL,ioos:station:DISL:MHPA:1,2012-07-04T14:30:00Z,30.6671,-87.9365,4.613,3.19,1111122 
DISL,ioos:station:DISL:MHPA:1,2012-07-04T15:00:00Z,30.6671,-87.9365,4.703,3.21,1111122 
DISL,ioos:station:DISL:MHPA:1,2012-07-04T15:30:00Z,30.6671,-87.9365,4.848,3.19,1111122 
DISL,ioos:station:DISL:MHPA:1,2012-07-04T16:00:00Z,30.6671,-87.9365,4.96,3.24,1111122 
DISL,ioos:station:DISL:MHPA:1,2012-07-04T16:30:00Z,30.6671,-87.9365,5.02,3.2,1111122 
DISL,ioos:station:DISL:MHPA:1,2012-07-04T17:00:00Z,30.6671,-87.9365,5.022,3.2,1111122 
DISL,ioos:station:DISL:MHPA:1,2012-07-04T17:30:00Z,30.6671,-87.9365,5.072,3.02,1111122 
DISL,ioos:station:DISL:MHPA:1,2012-07-04T18:00:00Z,30.6671,-87.9365,5.168,3.11,1111122 
DISL,ioos:station:DISL:MHPA:1,2012-07-04T18:30:00Z,30.6671,-87.9365,5.168,3.11,1111122 
DISL,ioos:station:DISL:MHPA:1,2012-07-04T19:00:00Z,30.6671,-87.9365,5.168,3.11,1111122 
DISL,ioos:station:DISL:MHPA:1,2012-07-04T19:30:00Z,30.6671,-87.9365,5.168,3.11,1111122 
DISL,ioos:station:DISL:MHPA:1,2012-07-04T20:00:00Z,30.6671,-87.9365,5.168,3.11,1111122 
DISL,ioos:station:DISL:MHPA:1,2012-07-04T20:30:00Z,30.6671,-87.9365,5.168,3.11,1111122 
DISL,ioos:station:DISL:MHPA:1,2012-07-04T21:00:00Z,30.6671,-87.9365,5.168,3.11,1111122 
DISL,ioos:station:DISL:MHPA:1,2012-07-04T21:30:00Z,30.6671,-87.9365,5.168,3.11,1111122 
DISL,ioos:station:DISL:MHPA:1,2012-07-04T22:00:00Z,30.6671,-87.9365,5.168,3.11,1111122 
DISL,ioos:station:DISL:MHPA:1,2012-07-04T22:30:00Z,30.6671,-87.9365,5.168,3.11,1111122 
DISL,ioos:station:DISL:MHPA:1,2012-07-04T23:00:00Z,30.6671,-87.9365,5.168,3.11,1111122 
DISL,ioos:station:DISL:MHPA:1,2012-07-04T23:30:00Z,30.6671,-87.9365,5.168,3.11,1111122 
DISL,ioos:station:DISL:MHPA:1,2012-07-05T00:00:00Z,30.6671,-87.9365,5.168,3.11,1111122 
DISL,ioos:station:DISL:MHPA:1,2012-07-05T00:30:00Z,30.6671,-87.9365,5.168,3.11,1111122 
DISL,ioos:station:DISL:MHPA:1,2012-07-05T01:00:00Z,30.6671,-87.9365,5.168,3.11,1111122 
DISL,ioos:station:DISL:MHPA:1,2012-07-05T01:30:00Z,30.6671,-87.9365,5.168,3.11,1111122 
DISL,ioos:station:DISL:MHPA:1,2012-07-05T02:00:00Z,30.6671,-87.9365,5.168,3.11,1111122 
DISL,ioos:station:DISL:MHPA:1,2012-07-05T02:30:00Z,30.6671,-87.9365,5.168,3.11,1111122 
DISL,ioos:station:DISL:MHPA:1,2012-07-05T03:00:00Z,30.6671,-87.9365,5.168,3.11,1111122 
DISL,ioos:station:DISL:MHPA:1,2012-07-05T03:30:00Z,30.6671,-87.9365,5.168,3.11,1111122 
DISL,ioos:station:DISL:MHPA:1,2012-07-05T04:00:00Z,30.6671,-87.9365,5.168,3.11,1111122 
DISL,ioos:station:DISL:MHPA:1,2012-07-05T04:30:00Z,30.6671,-87.9365,5.168,3.11,1111122 
DISL,ioos:station:DISL:MHPA:1,2012-07-05T05:00:00Z,30.6671,-87.9365,5.168,3.11,1111122 
DISL,ioos:station:DISL:MHPA:1,2012-07-05T05:30:00Z,30.6671,-87.9365,5.168,3.11,1111122 
DISL,ioos:station:DISL:MHPA:1,2012-07-05T06:00:00Z,30.6671,-87.9365,5.168,3.11,1111122 
DISL,ioos:station:DISL:MHPA:1,2012-07-05T06:30:00Z,30.6671,-87.9365,5.168,3.11,1111122 
DISL,ioos:station:DISL:MHPA:1,2012-07-05T07:00:00Z,30.6671,-87.9365,5.168,3.11,1111122 
DISL,ioos:station:DISL:MHPA:1,2012-07-05T07:30:00Z,30.6671,-87.9365,5.168,3.11,1111122 
DISL,ioos:station:DISL:MHPA:1,2012-07-05T08:00:00Z,30.6671,-87.9365,5.168,3.11,1111122 
DISL,ioos:station:DISL:MHPA:1,2012-07-05T08:30:00Z,30.6671,-87.9365,5.168,3.11,1111122 
DISL,ioos:station:DISL:MHPA:1,2012-07-05T09:00:00Z,30.6671,-87.9365,5.168,3.11,1111122 
DISL,ioos:station:DISL:MHPA:1,2012-07-05T09:30:00Z,30.6671,-87.9365,5.168,3.11,1111122 
DISL,ioos:station:DISL:MHPA:1,2012-07-05T10:00:00Z,30.6671,-87.9365,5.168,3.11,1111122 
DISL,ioos:station:DISL:MHPA:1,2012-07-05T10:30:00Z,30.6671,-87.9365,5.168,3.11,1111122 
DISL,ioos:station:DISL:MHPA:1,2012-07-05T11:00:00Z,30.6671,-87.9365,5.168,3.11,1111122 
DISL,ioos:station:DISL:MHPA:1,2012-07-05T11:30:00Z,30.6671,-87.9365,5.168,3.11,1111122 
DISL,ioos:station:DISL:MHPA:1,2012-07-05T12:00:00Z,30.6671,-87.9365,5.168,3.11,1111122 
DISL,ioos:station:DISL:MHPA:1,2012-07-05T12:30:00Z,30.6671,-87.9365,5.168,3.11,1111122 
DISL,ioos:station:DISL:MHPA:1,2012-07-05T13:00:00Z,30.6671,-87.9365,5.168,3.11,1111122 
DISL,ioos:station:DISL:MHPA:1,2012-07-05T13:30:00Z,30.6671,-87.9365,5.168,3.11,1111122 
DISL,ioos:station:DISL:MHPA:1,2012-07-05T14:00:00Z,30.6671,-87.9365,5.168,3.11,1111122 
DISL,ioos:station:DISL:MHPA:1,2012-07-05T14:30:00Z,30.6671,-87.9365,5.168,3.11,1111122 
DISL,ioos:station:DISL:MHPA:1,2012-07-05T15:00:00Z,30.6671,-87.9365,5.168,3.11,1111122 
DISL,ioos:station:DISL:MHPA:1,2012-07-05T15:30:00Z,30.6671,-87.9365,4.582,3.1,1111122 
DISL,ioos:station:DISL:MHPA:1,2012-07-05T16:00:00Z,30.6671,-87.9365,4.646,3.11,1111122 
DISL,ioos:station:DISL:MHPA:1,2012-07-05T16:30:00Z,30.6671,-87.9365,4.765,3.1,1111122 
DISL,ioos:station:DISL:MHPA:1,2012-07-05T17:00:00Z,30.6671,-87.9365,4.861,3.12,1111122 
DISL,ioos:station:DISL:MHPA:1,2012-07-05T17:30:00Z,30.6671,-87.9365,4.887,3.12,1111122 
DISL,ioos:station:DISL:MHPA:1,2012-07-05T18:00:00Z,30.6671,-87.9365,4.945,3.14,1111122 
DISL,ioos:station:DISL:MHPA:1,2012-07-05T18:30:00Z,30.6671,-87.9365,4.957,3.12,1111122 
DISL,ioos:station:DISL:MHPA:1,2012-07-05T19:00:00Z,30.6671,-87.9365,4.929,3.21,1111122 
DISL,ioos:station:DISL:MHPA:1,2012-07-05T19:30:00Z,30.6671,-87.9365,4.923,3.23,1111122 
DISL,ioos:station:DISL:MHPA:1,2012-07-05T20:00:00Z,30.6671,-87.9365,4.903,3.22,1111122 
DISL,ioos:station:DISL:MHPA:1,2012-07-05T20:30:00Z,30.6671,-87.9365,4.834,3.2,1111122 
DISL,ioos:station:DISL:MHPA:1,2012-07-05T21:00:00Z,30.6671,-87.9365,4.84,3.17,1111122 
DISL,ioos:station:DISL:MHPA:1,2012-07-05T21:30:00Z,30.6671,-87.9365,4.783,3.17,1111122 
DISL,ioos:station:DISL:MHPA:1,2012-07-05T22:00:00Z,30.6671,-87.9365,4.665,3.14,1111122 
DISL,ioos:station:DISL:MHPA:1,2012-07-05T22:30:00Z,30.6671,-87.9365,4.569,3.13,1111122 
DISL,ioos:station:DISL:MHPA:1,2012-07-05T23:00:00Z,30.6671,-87.9365,4.466,3.13,1111122 
DISL,ioos:station:DISL:MHPA:1,2012-07-05T23:30:00Z,30.6671,-87.9365,4.339,3.14,1111122 
DISL,ioos:station:DISL:MHPA:1,2012-07-06T00:00:00Z,30.6671,-87.9365,4.193,3.15,1111122 
DISL,ioos:station:DISL:MHPA:1,2012-07-06T00:30:00Z,30.6671,-87.9365,4.062,3.15,1111122 
DISL,ioos:station:DISL:MHPA:1,2012-07-06T01:00:00Z,30.6671,-87.9365,3.937,3.14,1111122 
DISL,ioos:station:DISL:MHPA:1,2012-07-06T01:30:00Z,30.6671,-87.9365,3.829,3.18,1111122 
DISL,ioos:station:DISL:MHPA:1,2012-07-06T02:00:00Z,30.6671,-87.9365,3.725,3.18,1111122 
DISL,ioos:station:DISL:MHPA:1,2012-07-06T02:30:00Z,30.6671,-87.9365,3.617,3.18,1111122 
DISL,ioos:station:DISL:MHPA:1,2012-07-06T03:00:00Z,30.6671,-87.9365,3.541,3.17,1111122 
DISL,ioos:station:DISL:MHPA:1,2012-07-06T03:30:00Z,30.6671,-87.9365,3.456,3.14,1111122 
DISL,ioos:station:DISL:MHPA:1,2012-07-06T04:00:00Z,30.6671,-87.9365,3.366,3.11,1111122 
DISL,ioos:station:DISL:MHPA:1,2012-07-06T04:30:00Z,30.6671,-87.9365,3.306,3.14,1111122 
DISL,ioos:station:DISL:MHPA:1,2012-07-06T05:00:00Z,30.6671,-87.9365,3.265,3.13,1111122 
DISL,ioos:station:DISL:MHPA:1,2012-07-06T05:30:00Z,30.6671,-87.9365,3.22,3.13,1111122 
DISL,ioos:station:DISL:MHPA:1,2012-07-06T06:00:00Z,30.6671,-87.9365,3.186,3.14,1111122 
DISL,ioos:station:DISL:MHPA:1,2012-07-06T06:30:00Z,30.6671,-87.9365,3.2,3.17,1111122 
DISL,ioos:station:DISL:MHPA:1,2012-07-06T07:00:00Z,30.6671,-87.9365,3.263,3.13,1111122 
DISL,ioos:station:DISL:MHPA:1,2012-07-06T07:30:00Z,30.6671,-87.9365,3.296,3.16,1111122 
DISL,ioos:station:DISL:MHPA:1,2012-07-06T08:00:00Z,30.6671,-87.9365,3.314,3.13,1111122 
DISL,ioos:station:DISL:MHPA:1,2012-07-06T08:30:00Z,30.6671,-87.9365,3.388,3.16,1111122 
DISL,ioos:station:DISL:MHPA:1,2012-07-06T09:00:00Z,30.6671,-87.9365,3.497,3.13,1111122 
DISL,ioos:station:DISL:MHPA:1,2012-07-06T09:30:00Z,30.6671,-87.9365,3.566,3.16,1111122 
DISL,ioos:station:DISL:MHPA:1,2012-07-06T10:00:00Z,30.6671,-87.9365,3.626,3.17,1111122 
DISL,ioos:station:DISL:MHPA:1,2012-07-06T10:30:00Z,30.6671,-87.9365,3.67,3.15,1111122 
DISL,ioos:station:DISL:MHPA:1,2012-07-06T11:00:00Z,30.6671,-87.9365,3.738,3.13,1111122 
DISL,ioos:station:DISL:MHPA:1,2012-07-06T11:30:00Z,30.6671,-87.9365,3.828,3.15,1111122 
DISL,ioos:station:DISL:MHPA:1,2012-07-06T12:00:00Z,30.6671,-87.9365,3.834,3.15,1111122 
DISL,ioos:station:DISL:MHPA:1,2012-07-06T12:30:00Z,30.6671,-87.9365,3.799,3.16,1111122 
DISL,ioos:station:DISL:MHPA:1,2012-07-06T13:00:00Z,30.6671,-87.9365,3.831,3.13,1111122 
DISL,ioos:station:DISL:MHPA:1,2012-07-06T13:30:00Z,30.6671,-87.9365,3.942,3.1,1111122 
DISL,ioos:station:DISL:MHPA:1,2012-07-06T14:00:00Z,30.6671,-87.9365,3.995,3.15,1111122 
DISL,ioos:station:DISL:MHPA:1,2012-07-06T14:30:00Z,30.6671,-87.9365,4.105,3.15,1111122 
DISL,ioos:station:DISL:MHPA:1,2012-07-06T15:00:00Z,30.6671,-87.9365,4.293,3.17,1111122 
DISL,ioos:station:DISL:MHPA:1,2012-07-06T15:30:00Z,30.6671,-87.9365,4.572,3.18,1111122 